"startDT [UTC]","vpos","CH4 [ppm]","stdev(CH4) [ppm]","CO2 [ppm]","stdev(CO2) [ppm]","H2O_reported [%]","stdev(H2O_reported)","CavityPressure [torr]","CavityTemp [C]","OutletValve","CH4_dry [ppm]","CO2_dry [ppm]","DasTemp [C]","EtalonTemp [C]","WarmBoxTemp [C]","MPVPosition","T_ECpre [C]","T_EC1 [C]","T_EC2 [C]","p_inlet [hPa]","p_in [hPa]","p_out [hPa]","T_inlet [C]","RH_inlet [%]","dwpt_inlet [C]","T_vent [C]","RH_vent [%]","dwpt_vent [C]","flow_vent [l min-1]","flow_inlet [l min-1]","dwpt_sample [C]","T_room [C]"
2015-10-16 00:00:00,3.0,1.87991,0.01493,397.485,1.409,0.0641,0.0989,139.977,45.000,31540.55104,1.88287,397.779,36.697,45.068,45.000,0.00,0.09,-272.74,-272.80,-8,487,-949,21.7,9.2,-12.4,22.0,9.2,-12.1,5.73,1.76,-7.8,28.4
2015-10-16 00:01:00,3.0,1.87636,0.00032,397.044,0.052,0.0137,0.0018,140.000,45.000,31526.76996,1.87658,397.111,36.699,45.068,45.000,0.00,0.09,-272.75,-272.81,-7,486,-949,21.7,9.1,-12.5,21.9,9.1,-12.2,5.73,2.11,-7.8,28.4
2015-10-16 00:02:00,3.0,1.87642,0.00033,397.239,0.107,0.0140,0.0019,139.998,45.000,31519.39987,1.87670,397.300,36.706,45.068,45.000,0.00,0.09,-272.74,-272.82,-7,486,-949,21.7,9.0,-12.6,21.9,9.1,-12.3,5.73,1.79,-7.8,28.4
2015-10-16 00:03:00,3.0,1.87611,0.00035,397.465,0.037,0.0129,0.0017,140.000,45.000,31513.50723,1.87633,397.525,36.743,45.068,45.000,0.00,0.09,-272.74,-272.80,-8,486,-949,21.7,8.9,-12.7,21.9,9.0,-12.4,5.73,1.96,-7.8,28.4
2015-10-16 00:04:00,3.0,1.87621,0.00042,397.509,0.034,0.0102,0.0018,140.000,45.000,31509.10303,1.87640,397.557,36.731,45.068,45.000,0.00,0.09,-272.74,-272.81,-6,486,-949,21.7,8.9,-12.7,21.9,9.0,-12.4,5.73,1.99,-7.8,28.4
2015-10-16 00:05:00,3.0,1.87629,0.00030,397.519,0.025,0.0084,0.0017,140.000,45.000,31509.03430,1.87646,397.560,36.711,45.068,45.000,0.00,0.09,-272.75,-272.81,-7,486,-949,21.7,8.8,-12.8,22.0,8.9,-12.5,5.73,1.77,-7.8,28.4
2015-10-16 00:06:00,3.0,1.87620,0.00043,397.525,0.029,0.0067,0.0024,140.001,45.000,31510.14687,1.87631,397.556,36.690,45.068,45.000,0.00,0.09,-272.75,-272.80,-8,487,-949,21.7,8.8,-12.8,22.0,8.9,-12.5,5.73,2.12,-7.8,28.5
2015-10-16 00:07:00,3.0,1.87644,0.00046,397.543,0.032,0.0061,0.0017,140.000,45.000,31507.60317,1.87656,397.572,36.688,45.068,45.000,0.00,0.09,-272.74,-272.80,-6,487,-949,21.8,8.8,-12.7,22.0,8.9,-12.4,5.73,1.72,-7.8,28.4
2015-10-16 00:08:00,3.0,1.87640,0.00038,397.551,0.021,0.0044,0.0019,140.000,45.000,31506.88813,1.87647,397.573,36.688,45.068,45.000,0.00,0.09,-272.76,-272.80,-8,487,-949,21.8,8.9,-12.7,22.0,9.0,-12.4,5.73,2.07,-7.8,28.5
2015-10-16 00:09:00,3.0,1.87637,0.00029,397.558,0.034,0.0039,0.0020,140.000,45.000,31508.41443,1.87646,397.575,36.688,45.068,45.000,0.00,0.09,-272.74,-272.81,-8,487,-949,21.8,8.9,-12.6,22.0,9.0,-12.3,5.73,1.87,-7.7,28.5
2015-10-16 00:10:00,3.0,1.87650,0.00039,397.556,0.035,0.0035,0.0018,140.001,45.000,31507.48495,1.87656,397.572,36.689,45.068,45.000,0.00,0.09,-272.75,-272.80,-7,487,-949,21.8,8.8,-12.7,22.0,8.9,-12.4,5.73,1.87,-7.7,28.5
2015-10-16 00:11:00,3.0,1.87655,0.00032,397.574,0.027,0.0032,0.0023,139.999,45.000,31507.40432,1.87660,397.590,36.688,45.068,45.000,0.00,0.09,-272.75,-272.80,-8,488,-949,21.8,8.8,-12.8,22.0,8.8,-12.5,5.73,2.07,-7.8,28.5
2015-10-16 00:12:00,3.0,1.87671,0.00038,397.585,0.031,0.0029,0.0022,140.000,45.000,31507.55317,1.87676,397.598,36.689,45.068,45.000,0.00,0.09,-272.75,-272.81,-7,488,-949,21.9,8.8,-12.8,22.0,8.8,-12.5,5.73,1.73,-7.7,28.5
2015-10-16 00:13:00,3.0,1.87670,0.00043,397.602,0.035,0.0027,0.0019,139.998,45.000,31507.81583,1.87676,397.614,36.689,45.068,45.000,0.00,0.09,-272.75,-272.80,-7,488,-949,21.9,8.8,-12.7,22.1,8.8,-12.5,5.73,2.12,-7.7,28.5
2015-10-16 00:14:00,3.0,1.87666,0.00034,397.593,0.032,0.0024,0.0015,139.997,45.000,31509.53877,1.87670,397.605,36.692,45.068,45.000,0.00,0.09,-272.74,-272.81,-8,488,-949,21.9,8.9,-12.5,22.1,9.0,-12.3,5.73,1.77,-7.7,28.5
2015-10-16 00:15:00,3.0,1.87674,0.00031,397.611,0.019,0.0009,0.0017,140.000,45.000,31509.97461,1.87676,397.615,36.693,45.068,45.000,0.00,0.09,-272.75,-272.81,-7,488,-949,22.0,8.9,-12.5,22.1,9.0,-12.3,5.73,1.99,-7.7,28.6
2015-10-16 00:16:00,3.0,1.87676,0.00039,397.605,0.034,0.0016,0.0013,140.001,45.000,31512.81761,1.87678,397.613,36.690,45.068,45.000,0.00,0.09,-272.74,-272.81,-7,489,-949,22.0,8.8,-12.6,22.2,8.9,-12.3,5.73,1.96,-7.7,28.6
2015-10-16 00:17:00,3.0,1.87663,0.00043,397.598,0.025,0.0018,0.0019,139.997,45.000,31513.87586,1.87664,397.607,36.688,45.068,45.000,0.00,0.09,-272.74,-272.80,-8,489,-949,22.0,9.0,-12.3,22.2,9.1,-12.1,5.73,1.79,-7.7,28.6
2015-10-16 00:18:00,3.0,1.87667,0.00048,397.611,0.025,0.0019,0.0020,139.998,45.000,31516.33969,1.87672,397.620,36.710,45.068,45.000,0.00,0.09,-272.75,-272.81,-7,489,-949,22.1,9.1,-12.2,22.3,9.2,-11.9,5.73,2.11,-7.7,28.6
2015-10-16 00:19:00,3.0,1.87641,0.00048,397.584,0.032,0.0015,0.0009,140.001,45.000,31519.91275,1.87645,397.591,36.733,45.068,45.000,0.00,0.09,-272.75,-272.81,-8,489,-949,22.2,9.1,-12.1,22.3,9.2,-11.9,5.73,1.71,-7.7,28.6
2015-10-16 00:20:00,0.0,1.92633,0.01918,395.272,1.104,0.2500,0.1117,140.015,45.000,31746.87974,1.92914,396.483,36.713,45.068,45.000,0.00,0.09,-272.74,-272.81,-9,523,-948,22.2,9.2,-12.0,22.3,9.3,-11.7,5.73,2.08,-7.7,28.6
2015-10-16 00:21:00,0.0,1.92942,0.00260,394.353,0.116,0.3073,0.0023,139.998,45.000,31773.46075,1.93529,395.823,36.718,45.068,45.000,0.00,0.09,-272.74,-272.81,-8,524,-948,22.2,8.9,-12.3,22.3,9.1,-11.9,5.73,2.02,-7.7,28.7
2015-10-16 00:22:00,0.0,1.92907,0.00126,394.351,0.073,0.3105,0.0022,140.000,45.000,31780.31546,1.93504,395.838,36.733,45.068,45.000,0.00,0.09,-272.74,-272.81,-8,524,-948,22.2,9.0,-12.2,22.3,9.1,-12.0,5.73,1.76,-7.7,28.6
2015-10-16 00:23:00,0.0,1.93022,0.00125,394.359,0.068,0.3137,0.0019,139.998,45.000,31786.46161,1.93636,395.862,36.739,45.068,45.000,0.00,0.09,-272.74,-272.79,-10,524,-948,22.3,9.0,-12.2,22.4,9.1,-11.9,5.73,2.08,-7.7,28.7
2015-10-16 00:24:00,0.0,1.92766,0.00215,394.271,0.109,0.3121,0.0018,139.999,45.000,31790.90877,1.93369,395.766,36.741,45.068,45.000,0.00,0.09,-272.74,-272.80,-9,525,-948,22.3,9.0,-12.2,22.4,9.1,-11.9,5.73,2.00,-7.7,28.7
2015-10-16 00:25:00,0.0,1.93021,0.00209,394.365,0.075,0.3164,0.0036,140.000,45.000,31796.21614,1.93604,395.874,36.735,45.068,45.000,0.00,0.09,-272.75,-272.80,-8,525,-948,22.3,9.0,-12.1,22.4,9.1,-11.9,5.73,1.76,-7.7,28.7
2015-10-16 00:26:00,0.0,1.93152,0.00112,394.377,0.048,0.3204,0.0016,140.001,45.000,31799.23374,1.93779,395.913,36.736,45.068,45.000,0.00,0.09,-272.75,-272.80,-9,525,-948,22.3,9.1,-11.9,22.5,9.2,-11.7,5.73,2.08,-7.7,28.7
2015-10-16 00:27:00,0.0,1.92759,0.00117,394.187,0.074,0.3162,0.0022,140.001,45.000,31802.56847,1.93368,395.701,36.750,45.068,45.000,0.00,0.09,-272.74,-272.81,-10,525,-948,22.3,9.0,-12.1,22.5,9.2,-11.7,5.73,1.99,-7.7,28.8
2015-10-16 00:28:00,0.0,1.92873,0.00173,394.247,0.073,0.3178,0.0021,139.999,45.000,31805.15057,1.93488,395.768,36.751,45.068,45.000,0.00,0.09,-272.74,-272.80,-9,526,-948,22.3,9.0,-12.0,22.5,9.1,-11.8,5.73,1.76,-7.7,28.8
2015-10-16 00:29:00,0.0,1.92516,0.00084,394.132,0.042,0.3168,0.0020,139.998,45.000,31806.33276,1.93127,395.646,36.752,45.068,45.000,0.00,0.09,-272.75,-272.81,-8,525,-948,22.3,9.0,-12.1,22.5,9.1,-11.8,5.73,2.11,-7.7,28.8
2015-10-16 00:30:00,0.0,1.92493,0.00051,394.088,0.035,0.3163,0.0019,140.001,45.000,31809.58564,1.93094,395.602,36.752,45.068,45.000,0.00,0.09,-272.73,-272.80,-10,526,-948,22.3,9.0,-12.1,22.5,9.1,-11.8,5.73,1.94,-7.7,28.8
2015-10-16 00:31:00,0.0,1.93088,0.00258,394.300,0.101,0.3148,0.0020,139.998,45.000,31808.91790,1.93666,395.800,36.750,45.068,45.000,0.00,0.09,-272.74,-272.80,-9,526,-948,22.3,9.0,-12.2,22.5,9.1,-11.8,5.73,1.79,-7.6,28.8
2015-10-16 00:32:00,0.0,1.93372,0.00074,394.458,0.059,0.3147,0.0020,139.998,45.000,31810.12665,1.93980,395.965,36.749,45.068,45.000,0.00,0.09,-272.75,-272.81,-8,526,-948,22.3,8.9,-12.2,22.5,9.0,-11.9,5.73,2.13,-7.6,28.8
2015-10-16 00:33:00,0.0,1.93193,0.00118,394.311,0.044,0.3106,0.0019,139.999,45.000,31812.20681,1.93779,395.795,36.749,45.068,45.000,0.00,0.09,-272.74,-272.80,-9,526,-948,22.3,8.9,-12.3,22.5,9.0,-12.0,5.73,1.89,-7.6,28.8
2015-10-16 00:34:00,0.0,1.93271,0.00170,394.456,0.037,0.3133,0.0016,139.999,45.000,31815.19817,1.93881,395.952,36.746,45.068,45.000,0.00,0.09,-272.74,-272.80,-10,526,-948,22.3,8.9,-12.3,22.5,9.0,-12.0,5.73,1.82,-7.6,28.8
2015-10-16 00:35:00,0.0,1.93092,0.00089,394.451,0.040,0.3140,0.0020,139.996,45.000,31814.29427,1.93700,395.956,36.746,45.068,45.000,0.00,0.09,-272.75,-272.81,-9,526,-948,22.2,8.9,-12.2,22.5,9.0,-11.9,5.73,2.14,-7.6,28.8
2015-10-16 00:36:00,0.0,1.92907,0.00093,394.473,0.065,0.3136,0.0021,140.001,45.000,31816.38425,1.93504,395.970,36.748,45.068,45.000,0.00,0.09,-272.74,-272.81,-8,526,-948,22.2,8.9,-12.2,22.5,9.0,-11.9,5.73,1.87,-7.6,28.8
2015-10-16 00:37:00,0.0,1.92891,0.00125,394.450,0.085,0.3145,0.0026,139.998,45.000,31815.17228,1.93509,395.961,36.750,45.068,45.000,0.00,0.09,-272.74,-272.79,-10,526,-948,22.3,8.9,-12.3,22.4,9.0,-12.0,5.73,1.83,-7.6,28.8
2015-10-16 00:38:00,0.0,1.92645,0.00078,394.273,0.068,0.3077,0.0022,140.000,45.000,31818.02299,1.93230,395.742,36.762,45.068,45.000,0.00,0.09,-272.75,-272.80,-9,526,-948,22.2,8.8,-12.4,22.5,8.9,-12.1,5.73,2.14,-7.6,28.8
2015-10-16 00:39:00,0.0,1.92541,0.00117,394.383,0.035,0.3121,0.0023,140.000,45.000,31819.26498,1.93143,395.875,36.792,45.068,45.000,0.00,0.09,-272.74,-272.81,-8,526,-948,22.2,8.9,-12.3,22.5,9.0,-12.1,5.73,1.84,-7.6,28.8
2015-10-16 00:40:00,0.0,1.92376,0.00054,394.343,0.058,0.3136,0.0019,140.000,45.000,31820.82841,1.92981,395.843,36.798,45.068,45.000,0.00,0.09,-272.74,-272.80,-9,526,-948,22.2,8.9,-12.3,22.5,9.0,-12.0,5.73,1.87,-7.6,28.8
2015-10-16 00:41:00,0.0,1.92332,0.00053,394.406,0.042,0.3150,0.0012,140.000,45.000,31820.04067,1.92934,395.913,36.803,45.068,45.000,0.00,0.09,-272.74,-272.81,-10,526,-948,22.2,9.0,-12.2,22.5,9.0,-11.9,5.73,2.13,-7.6,28.8
2015-10-16 00:42:00,0.0,1.92292,0.00033,394.410,0.037,0.3120,0.0016,140.002,45.000,31823.90805,1.92885,395.901,36.791,45.068,45.000,0.00,0.09,-272.74,-272.81,-9,526,-948,22.2,8.9,-12.3,22.5,9.0,-12.0,5.73,1.81,-7.6,28.8
2015-10-16 00:43:00,0.0,1.92398,0.00044,394.456,0.026,0.3127,0.0014,140.001,45.000,31823.99677,1.92993,395.952,36.756,45.068,45.000,0.00,0.09,-272.74,-272.80,-8,526,-948,22.2,8.9,-12.3,22.4,9.0,-12.0,5.73,1.90,-7.6,28.8
2015-10-16 00:44:00,0.0,1.92431,0.00044,394.505,0.056,0.3135,0.0015,140.002,45.000,31823.69960,1.93028,396.003,36.792,45.068,45.000,0.00,0.09,-272.74,-272.80,-9,526,-948,22.2,9.0,-12.3,22.5,9.0,-12.0,5.73,2.13,-7.6,28.8
2015-10-16 00:45:00,0.0,1.92561,0.00048,394.590,0.045,0.3169,0.0023,139.999,45.000,31823.61040,1.93161,396.106,36.803,45.068,45.000,0.00,0.09,-272.74,-272.81,-9,526,-948,22.2,9.1,-12.1,22.5,9.1,-11.9,5.73,1.79,-7.6,28.8
2015-10-16 00:46:00,0.0,1.92567,0.00047,394.528,0.042,0.3164,0.0015,139.999,45.000,31823.43005,1.93173,396.044,36.813,45.068,45.000,0.00,0.09,-272.75,-272.80,-8,526,-948,22.2,9.0,-12.1,22.4,9.1,-11.9,5.73,1.93,-7.6,28.8
2015-10-16 00:47:00,0.0,1.92598,0.00033,394.548,0.031,0.3172,0.0014,139.997,45.000,31823.18860,1.93204,396.066,36.812,45.068,45.000,0.00,0.09,-272.74,-272.80,-9,526,-948,22.2,9.0,-12.1,22.4,9.1,-11.9,5.73,2.11,-7.6,28.9
2015-10-16 00:48:00,0.0,1.92627,0.00041,394.547,0.034,0.3162,0.0014,139.996,45.000,31823.43153,1.93230,396.060,36.808,45.068,45.000,0.00,0.09,-272.74,-272.81,-10,526,-948,22.2,9.0,-12.2,22.4,9.1,-11.9,5.73,1.77,-7.6,28.8
2015-10-16 00:49:00,0.0,1.92676,0.00044,394.622,0.045,0.3168,0.0017,139.998,45.000,31823.35700,1.93279,396.137,36.810,45.068,45.000,0.00,0.09,-272.75,-272.81,-9,526,-948,22.2,9.1,-12.1,22.4,9.1,-11.8,5.73,1.97,-7.6,28.8
2015-10-16 00:50:00,0.0,1.92766,0.00045,394.695,0.031,0.3180,0.0021,139.998,45.000,31823.30878,1.93372,396.217,36.770,45.068,45.000,0.00,0.09,-272.74,-272.80,-8,526,-948,22.1,9.1,-12.1,22.5,9.1,-11.8,5.73,2.09,-7.6,28.8
2015-10-16 00:51:00,0.0,1.92812,0.00039,394.733,0.033,0.3171,0.0016,139.998,45.000,31825.22752,1.93417,396.250,36.751,45.068,45.000,0.00,0.09,-272.74,-272.80,-10,526,-948,22.1,9.1,-12.1,22.4,9.1,-11.8,5.73,1.76,-7.6,28.8
2015-10-16 00:52:00,0.0,1.92937,0.00050,394.779,0.028,0.3175,0.0012,139.999,45.000,31823.65482,1.93543,396.300,36.753,45.068,45.000,0.00,0.09,-272.75,-272.80,-9,526,-948,22.1,9.1,-12.1,22.5,9.1,-11.8,5.73,2.01,-7.6,28.8
2015-10-16 00:53:00,0.0,1.93045,0.00064,394.802,0.041,0.3176,0.0017,139.998,45.000,31826.31472,1.93649,396.323,36.769,45.068,45.001,0.00,0.09,-272.74,-272.81,-8,526,-948,22.1,9.1,-12.1,22.4,9.1,-11.9,5.73,2.06,-7.6,28.8
2015-10-16 00:54:00,0.0,1.93169,0.00059,394.857,0.037,0.3172,0.0017,139.997,45.000,31827.45167,1.93773,396.376,36.812,45.068,45.000,0.00,0.09,-272.74,-272.80,-9,526,-948,22.1,9.1,-12.1,22.4,9.1,-11.8,5.73,1.75,-7.6,28.8
2015-10-16 00:55:00,0.0,1.93150,0.00076,394.885,0.039,0.3176,0.0016,139.999,45.000,31828.72179,1.93765,396.406,36.813,45.068,45.000,0.00,0.09,-272.75,-272.80,-10,526,-948,22.1,9.1,-12.1,22.4,9.1,-11.8,5.73,2.05,-7.6,28.8
2015-10-16 00:56:00,0.0,1.93117,0.00065,394.913,0.027,0.3190,0.0019,139.999,45.000,31828.10648,1.93731,396.441,36.828,45.068,45.000,0.00,0.09,-272.74,-272.81,-9,526,-948,22.1,9.1,-12.1,22.4,9.2,-11.8,5.73,2.02,-7.6,28.8
2015-10-16 00:57:00,0.0,1.93035,0.00063,394.899,0.038,0.3197,0.0016,140.001,45.000,31828.79564,1.93648,396.431,36.858,45.068,45.000,0.00,0.09,-272.73,-272.80,-8,526,-948,22.1,9.1,-12.1,22.4,9.2,-11.8,5.73,1.76,-7.6,28.8
2015-10-16 00:58:00,0.0,1.93004,0.00057,394.924,0.036,0.3205,0.0019,140.000,45.000,31827.11375,1.93618,396.458,36.852,45.068,45.000,0.00,0.09,-272.75,-272.80,-10,526,-948,22.1,9.2,-12.1,22.4,9.2,-11.7,5.73,2.09,-7.6,28.8
2015-10-16 00:59:00,0.0,1.92979,0.00043,394.956,0.029,0.3210,0.0019,139.998,45.000,31825.42111,1.93591,396.492,36.861,45.068,45.000,0.00,0.09,-272.75,-272.81,-9,526,-948,22.1,9.2,-12.0,22.4,9.2,-11.7,5.73,1.95,-7.6,28.8
2015-10-16 01:00:00,0.0,1.93021,0.00045,394.962,0.032,0.3213,0.0014,140.000,45.000,31825.89754,1.93640,396.503,36.851,45.068,45.000,0.00,0.09,-272.75,-272.81,-8,526,-948,22.1,9.2,-12.0,22.4,9.2,-11.7,5.73,1.78,-7.6,28.8
2015-10-16 01:01:00,0.0,1.92986,0.00033,394.994,0.031,0.3207,0.0014,140.001,45.000,31825.61168,1.93600,396.529,36.874,45.068,45.000,0.00,0.09,-272.75,-272.80,-9,526,-948,22.0,9.2,-12.0,22.3,9.2,-11.7,5.73,2.13,-7.6,28.8
2015-10-16 01:02:00,0.0,1.93009,0.00044,394.985,0.025,0.3210,0.0016,139.999,45.000,31826.19808,1.93624,396.524,36.867,45.068,45.000,0.00,0.09,-272.74,-272.81,-10,526,-948,22.1,9.2,-12.0,22.3,9.2,-11.8,5.73,1.90,-7.6,28.8
2015-10-16 01:03:00,0.0,1.93012,0.00040,395.045,0.030,0.3213,0.0018,140.001,45.000,31826.59996,1.93627,396.584,36.837,45.068,45.000,0.00,0.09,-272.74,-272.80,-9,526,-948,22.0,9.2,-12.0,22.3,9.2,-11.8,5.73,1.82,-7.6,28.8
2015-10-16 01:04:00,0.0,1.93066,0.00044,395.100,0.034,0.3212,0.0019,140.000,45.000,31825.11075,1.93682,396.640,36.826,45.068,45.000,0.00,0.09,-272.75,-272.79,-8,526,-948,22.0,9.2,-12.0,22.3,9.2,-11.8,5.73,2.14,-7.6,28.7
2015-10-16 01:05:00,0.0,1.93008,0.00032,395.148,0.034,0.3206,0.0021,139.999,45.000,31825.26753,1.93622,396.685,36.852,45.068,45.000,0.00,0.09,-272.74,-272.81,-10,526,-948,22.0,9.2,-12.0,22.3,9.2,-11.7,5.73,1.86,-7.6,28.7
2015-10-16 01:06:00,0.0,1.93026,0.00045,395.137,0.033,0.3208,0.0015,140.000,45.000,31825.86416,1.93638,396.674,36.856,45.068,45.000,0.00,0.09,-272.75,-272.80,-9,526,-948,22.0,9.2,-12.0,22.3,9.3,-11.7,5.73,1.85,-7.6,28.8
2015-10-16 01:07:00,0.0,1.93157,0.00055,395.146,0.032,0.3220,0.0015,139.999,45.000,31823.37176,1.93772,396.691,36.851,45.068,45.000,0.00,0.09,-272.74,-272.80,-8,526,-948,22.0,9.3,-12.0,22.3,9.3,-11.7,5.73,2.14,-7.5,28.7
2015-10-16 01:08:00,0.0,1.93142,0.00035,395.109,0.028,0.3224,0.0018,139.997,45.000,31825.06008,1.93761,396.654,36.849,45.068,45.000,0.00,0.09,-272.73,-272.81,-9,526,-948,22.0,9.3,-12.0,22.3,9.3,-11.7,5.73,1.83,-7.6,28.8
2015-10-16 01:09:00,0.0,1.93166,0.00041,395.147,0.050,0.3227,0.0023,139.999,45.000,31826.25276,1.93782,396.692,36.842,45.068,45.000,0.00,0.09,-272.74,-272.81,-10,526,-948,22.0,9.3,-12.0,22.3,9.3,-11.7,5.73,1.89,-7.6,28.8
2015-10-16 01:10:00,0.0,1.93106,0.00071,395.191,0.032,0.3224,0.0017,139.999,45.000,31826.62235,1.93730,396.737,36.835,45.068,45.000,0.00,0.09,-272.74,-272.80,-9,526,-948,22.0,9.3,-12.0,22.3,9.3,-11.7,5.73,2.13,-7.6,28.7
2015-10-16 01:11:00,0.0,1.93036,0.00053,395.203,0.044,0.3228,0.0014,139.998,45.000,31824.03600,1.93654,396.752,36.817,45.068,45.000,0.00,0.09,-272.73,-272.80,-8,526,-948,22.0,9.3,-12.0,22.3,9.3,-11.7,5.73,1.78,-7.5,28.7
2015-10-16 01:12:00,0.0,1.92986,0.00101,395.151,0.085,0.3227,0.0016,139.997,45.000,31823.10469,1.93612,396.703,36.825,45.068,45.000,0.00,0.09,-272.75,-272.80,-10,526,-948,22.0,9.3,-12.0,22.3,9.3,-11.7,5.73,1.95,-7.6,28.7
2015-10-16 01:13:00,0.0,1.93079,0.00099,395.222,0.090,0.3221,0.0019,139.999,45.000,31823.85550,1.93689,396.760,36.847,45.068,45.000,0.00,0.09,-272.75,-272.81,-9,526,-948,22.0,9.3,-12.0,22.3,9.3,-11.7,5.73,2.10,-7.6,28.7
2015-10-16 01:14:00,0.0,1.93131,0.00047,395.277,0.058,0.3228,0.0018,139.999,45.000,31823.45902,1.93744,396.826,36.841,45.068,45.000,0.00,0.09,-272.73,-272.81,-8,526,-948,22.0,9.3,-11.9,22.3,9.3,-11.6,5.73,1.76,-7.5,28.7
2015-10-16 01:15:00,0.0,1.93197,0.00069,395.318,0.057,0.3240,0.0019,140.000,45.000,31820.69132,1.93815,396.872,36.865,45.068,45.000,0.00,0.09,-272.75,-272.80,-9,526,-948,22.0,9.3,-11.9,22.3,9.4,-11.6,5.73,2.00,-7.5,28.7
2015-10-16 01:16:00,0.0,1.93117,0.00119,395.261,0.089,0.3245,0.0020,139.999,45.000,31823.13886,1.93744,396.818,36.875,45.068,45.000,0.00,0.09,-272.75,-272.81,-10,526,-948,22.0,9.3,-11.9,22.3,9.4,-11.6,5.73,2.06,-7.5,28.7
2015-10-16 01:17:00,0.0,1.93180,0.00053,395.355,0.066,0.3254,0.0018,140.000,45.000,31824.62997,1.93806,396.916,36.876,45.068,45.000,0.00,0.09,-272.74,-272.80,-9,526,-948,22.0,9.3,-11.9,22.3,9.4,-11.6,5.73,1.75,-7.5,28.7
2015-10-16 01:18:00,0.0,1.93175,0.00064,395.375,0.052,0.3259,0.0018,140.002,45.000,31825.24319,1.93799,396.938,36.886,45.068,45.000,0.00,0.09,-272.75,-272.79,-9,526,-948,22.0,9.3,-11.9,22.3,9.4,-11.6,5.73,2.06,-7.5,28.7
2015-10-16 01:19:00,0.0,1.93201,0.00049,395.374,0.033,0.3255,0.0016,140.000,45.000,31825.36888,1.93821,396.936,36.927,45.068,45.000,0.00,0.09,-272.75,-272.81,-10,526,-948,22.0,9.4,-11.9,22.3,9.4,-11.6,5.73,2.01,-7.5,28.7
2015-10-16 01:20:00,0.0,1.93210,0.00068,395.415,0.038,0.3277,0.0015,140.001,45.000,31826.24553,1.93844,396.988,36.938,45.068,45.000,0.00,0.09,-272.74,-272.81,-9,526,-948,22.0,9.4,-11.8,22.3,9.4,-11.5,5.73,1.76,-7.5,28.7
2015-10-16 01:21:00,0.0,1.93238,0.00088,395.454,0.069,0.3279,0.0020,140.001,45.000,31827.02906,1.93860,397.024,36.941,45.067,45.000,0.00,0.09,-272.74,-272.80,-8,526,-948,22.0,9.4,-11.8,22.3,9.5,-11.5,5.73,2.10,-7.5,28.7
2015-10-16 01:22:00,0.0,1.93260,0.00046,395.519,0.040,0.3282,0.0017,139.999,45.000,31827.72954,1.93888,397.094,36.943,45.067,45.000,0.00,0.09,-272.74,-272.81,-10,526,-948,22.0,9.4,-11.7,22.3,9.5,-11.5,5.73,1.96,-7.5,28.7
2015-10-16 01:23:00,0.0,1.93258,0.00063,395.568,0.039,0.3287,0.0016,139.999,45.000,31826.31686,1.93889,397.146,36.983,45.068,45.000,0.00,0.09,-272.75,-272.81,-10,526,-948,22.0,9.4,-11.7,22.3,9.5,-11.5,5.73,1.77,-7.5,28.7
2015-10-16 01:24:00,0.0,1.93166,0.00066,395.499,0.086,0.3284,0.0020,139.998,45.000,31826.40599,1.93800,397.078,36.998,45.067,45.000,0.00,0.09,-272.74,-272.80,-9,526,-948,22.0,9.4,-11.7,22.3,9.5,-11.5,5.73,2.13,-7.5,28.7
2015-10-16 01:25:00,0.0,1.93083,0.00074,395.364,0.064,0.3276,0.0015,140.001,45.000,31826.98500,1.93712,396.935,36.973,45.068,45.000,0.00,0.09,-272.74,-272.81,-9,526,-948,22.0,9.4,-11.8,22.3,9.4,-11.5,5.73,1.89,-7.5,28.7
2015-10-16 01:26:00,0.0,1.93149,0.00054,395.424,0.035,0.3277,0.0014,139.999,45.000,31826.21010,1.93778,396.997,36.993,45.068,45.000,0.00,0.09,-272.75,-272.81,-10,526,-948,22.0,9.4,-11.8,22.3,9.4,-11.5,5.73,1.83,-7.5,28.7
2015-10-16 01:27:00,0.0,1.93182,0.00058,395.473,0.043,0.3286,0.0015,139.998,45.000,31825.34092,1.93807,397.049,36.992,45.068,45.000,0.00,0.09,-272.74,-272.80,-9,526,-948,22.0,9.4,-11.7,22.3,9.5,-11.5,5.73,2.14,-7.5,28.7
2015-10-16 01:28:00,0.0,1.93180,0.00067,395.480,0.060,0.3299,0.0019,139.998,45.000,31825.93855,1.93816,397.064,36.988,45.068,45.000,0.00,0.09,-272.74,-272.80,-9,526,-948,22.0,9.4,-11.7,22.3,9.5,-11.4,5.73,1.82,-7.5,28.8
2015-10-16 01:29:00,0.0,1.93131,0.00160,395.385,0.159,0.3298,0.0019,140.001,45.000,31826.47359,1.93770,396.972,36.958,45.068,45.000,0.00,0.09,-272.75,-272.80,-10,526,-949,22.0,9.4,-11.7,22.3,9.5,-11.4,5.73,1.91,-7.5,28.8
2015-10-16 01:30:00,0.0,1.93111,0.00031,395.361,0.036,0.3285,0.0021,140.001,45.000,31825.83157,1.93737,396.934,36.966,45.068,45.000,0.00,0.09,-272.74,-272.81,-10,526,-948,22.0,9.4,-11.8,22.3,9.5,-11.5,5.73,2.11,-7.5,28.8
2015-10-16 01:31:00,0.0,1.93096,0.00061,395.320,0.050,0.3303,0.0021,140.001,45.000,31826.07536,1.93731,396.904,36.959,45.068,45.000,0.00,0.09,-272.74,-272.80,-8,526,-948,22.0,9.5,-11.7,22.3,9.5,-11.5,5.73,1.75,-7.5,28.8
2015-10-16 01:32:00,0.0,1.92998,0.00078,395.279,0.059,0.3320,0.0015,139.999,45.000,31827.57704,1.93641,396.875,36.964,45.068,45.000,0.00,0.09,-272.76,-272.80,-10,526,-948,22.0,9.5,-11.7,22.3,9.5,-11.4,5.73,2.06,-7.5,28.8
2015-10-16 01:33:00,0.0,1.92938,0.00095,395.235,0.117,0.3322,0.0025,139.999,45.000,31827.21018,1.93576,396.830,36.953,45.068,45.000,0.00,0.09,-272.75,-272.81,-10,526,-948,22.0,9.5,-11.7,22.3,9.5,-11.4,5.73,2.00,-7.5,28.7
2015-10-16 01:34:00,0.0,1.93006,0.00056,395.259,0.063,0.3315,0.0024,140.000,45.000,31827.93985,1.93634,396.845,36.955,45.068,45.000,0.00,0.09,-272.74,-272.80,-8,526,-948,22.0,9.5,-11.6,22.3,9.5,-11.4,5.73,1.76,-7.5,28.7
2015-10-16 01:35:00,0.0,1.92966,0.00074,395.144,0.071,0.3331,0.0013,139.999,45.000,31827.17198,1.93607,396.745,36.949,45.068,45.000,0.00,0.09,-272.75,-272.80,-9,526,-948,22.0,9.5,-11.6,22.3,9.6,-11.3,5.73,2.12,-7.5,28.8
2015-10-16 01:36:00,0.0,1.92795,0.00057,394.961,0.049,0.3321,0.0017,139.999,45.000,31827.65121,1.93435,396.555,36.951,45.068,45.000,0.00,0.09,-272.74,-272.82,-10,526,-948,22.0,9.5,-11.6,22.3,9.5,-11.4,5.73,1.91,-7.5,28.7
2015-10-16 01:37:00,0.0,1.92845,0.00039,395.001,0.034,0.3345,0.0018,139.996,45.000,31824.42464,1.93486,396.605,36.942,45.068,45.000,0.00,0.09,-272.74,-272.80,-9,526,-948,22.0,9.6,-11.5,22.3,9.6,-11.3,5.73,1.82,-7.5,28.7
2015-10-16 01:38:00,0.0,1.92834,0.00048,394.982,0.043,0.3351,0.0018,140.000,45.000,31825.65549,1.93476,396.589,36.938,45.068,45.000,0.00,0.09,-272.75,-272.80,-8,526,-948,22.0,9.6,-11.5,22.3,9.6,-11.3,5.73,2.14,-7.5,28.8
2015-10-16 01:39:00,0.0,1.92838,0.00049,395.012,0.028,0.3365,0.0024,139.999,45.000,31824.88527,1.93483,396.624,36.939,45.068,45.000,0.00,0.09,-272.75,-272.81,-10,526,-948,22.0,9.6,-11.5,22.3,9.7,-11.2,5.73,1.82,-7.5,28.7
2015-10-16 01:40:00,0.0,1.92844,0.00035,395.016,0.025,0.3399,0.0019,139.999,45.000,31826.23955,1.93495,396.646,36.948,45.068,45.000,0.00,0.09,-272.75,-272.80,-9,526,-948,22.0,9.7,-11.4,22.3,9.7,-11.1,5.73,1.90,-7.5,28.7
2015-10-16 01:41:00,0.0,1.92789,0.00050,394.985,0.025,0.3409,0.0017,140.002,45.000,31827.81189,1.93444,396.619,36.972,45.068,45.000,0.00,0.09,-272.75,-272.81,-8,526,-948,22.1,9.7,-11.4,22.3,9.8,-11.1,5.73,2.12,-7.5,28.7
2015-10-16 01:42:00,0.0,1.92862,0.00070,395.031,0.037,0.3431,0.0031,139.998,45.000,31826.20962,1.93517,396.677,36.960,45.068,45.000,0.00,0.09,-272.74,-272.81,-9,525,-948,22.0,9.8,-11.3,22.3,9.8,-11.0,5.73,1.76,-7.5,28.7
2015-10-16 01:43:00,0.0,1.92838,0.00058,395.043,0.037,0.3466,0.0020,139.999,45.000,31828.42807,1.93507,396.706,36.953,45.068,45.000,0.00,0.09,-272.75,-272.80,-10,526,-948,22.0,9.9,-11.1,22.3,9.9,-10.9,5.73,2.00,-7.5,28.7
2015-10-16 01:44:00,0.0,1.92821,0.00038,395.031,0.026,0.3439,0.0020,139.998,45.000,31825.85883,1.93476,396.680,36.994,45.068,45.000,0.00,0.09,-272.74,-272.80,-8,526,-948,22.1,9.8,-11.2,22.3,9.9,-10.9,5.73,2.05,-7.5,28.7
2015-10-16 01:45:00,0.0,1.92873,0.00056,395.030,0.026,0.3447,0.0016,140.002,45.000,31827.20841,1.93534,396.682,36.999,45.068,45.000,0.00,0.09,-272.75,-272.80,-9,526,-949,22.1,9.8,-11.2,22.3,9.9,-10.9,5.73,1.75,-7.5,28.7